This is the latest recevied weather packets stored in our database for station/object KO4DYK. If no packets are shown the sender has not sent any weather packets the latest 10 day(s).
| Time | Temp. | Humidity | Pressure | Rain* | Wind** | Luminosity | Snow |
|---|---|---|---|---|---|---|---|
| 1777081756 | 17.22° C | 99% | 1012.9 hPa | 0 mm | - | 0 W/m² | - |
| 1777081452 | 17.22° C | 99% | 1012.6 hPa | 0 mm | - | 0 W/m² | - |
| 1777081148 | 17.22° C | 99% | 1012.6 hPa | 0 mm | - | 0 W/m² | - |
| 1777080847 | 17.22° C | 99% | 1012.7 hPa | 0 mm | - | 0 W/m² | - |
| 1777080543 | 17.22° C | 99% | 1012.5 hPa | 0 mm | - | 0 W/m² | - |
| 1777080237 | 17.22° C | 99% | 1012.3 hPa | 0 mm | - | 0 W/m² | - |
| 1777079932 | 17.78° C | 99% | 1012.1 hPa | 0 mm | - | 0 W/m² | - |
| 1777079631 | 17.78° C | 99% | 1012 hPa | 0 mm | - | 0 W/m² | - |
| 1777079327 | 17.78° C | 99% | 1012.3 hPa | 0 mm | - | 0 W/m² | - |
| 1777079023 | 17.78° C | 99% | 1012.2 hPa | 0 mm | - | 0 W/m² | - |
| 1777078720 | 17.78° C | 99% | 1012.3 hPa | 0 mm | - | 0 W/m² | - |
| 1777078417 | 17.78° C | 99% | 1012.5 hPa | 0 mm | - | 0 W/m² | - |
| 1777078116 | 17.78° C | 99% | 1012.3 hPa | 0 mm | - | 0 W/m² | - |
| 1777077811 | 18.33° C | 99% | 1012.4 hPa | 0 mm | - | 0 W/m² | - |
| 1777077510 | 18.33° C | 98% | 1012.4 hPa | 0 mm | - | 0 W/m² | - |
| 1777077210 | 18.33° C | 98% | 1012.3 hPa | 0 mm | - | 1 W/m² | - |
| 1777076908 | 18.89° C | 98% | 1012.6 hPa | 0 mm | - | 3 W/m² | - |
| 1777076605 | 18.89° C | 97% | 1012.5 hPa | 0 mm | - | 6 W/m² | - |
| 1777076301 | 18.89° C | 97% | 1012.6 hPa | 0 mm | - | 9 W/m² | - |
| 1777075996 | 18.89° C | 97% | 1012.6 hPa | 0 mm | - | 12 W/m² | - |
| 1777075692 | 19.44° C | 97% | 1012.5 hPa | 0 mm | - | 18 W/m² | - |
| 1777075388 | 19.44° C | 97% | 1012.3 hPa | 0 mm | - | 28 W/m² | - |
| 1777075084 | 19.44° C | 96% | 1012.4 hPa | 0 mm | - | 36 W/m² | - |
| 1777074781 | 19.44° C | 96% | 1012.4 hPa | 0 mm | - | 38 W/m² | - |
| 1777074476 | 19.44° C | 96% | 1012.3 hPa | 0 mm | - | 37 W/m² | - |
* Rain latest hour (hover to see other rain measurements)
** Current wind speed in m/s (hover to see current wind gust speed)